Weather History for KBIV - July, 2013

Change the Weather History Date:

Tuesday, July 23, 2013

  Actual Average Record
Temperature  
Mean Temperature 69 °F 72 °F  
Max Temperature 78 °F 82 °F 93 °F (1964)
Min Temperature 59 °F 63 °F 42 °F (1985)
Degree Days  
Heating Degree Days 0 0  
Month to date heating degree days 0 0  
Since 1 June heating degree days 34 48  
Since 1 July heating degree days 0 0  
Cooling Degree Days 4 8  
Month to date cooling degree days 262 178  
Year to date cooling degree days 516 366  
Since 1 June cooling degree days 426 324  
Growing Degree Days 20 (Base 50)    
Moisture  
Dew Point 61 °F    
Average Humidity 67    
Maximum Humidity 84    
Minimum Humidity 49    
Precipitation  
Precipitation 0.01 in 0.08 in 2.30 in (2001)
Month to date precipitation 1.64 2.13  
Year to date precipitation 24.80 18.94  
Sea Level Pressure  
Sea Level Pressure 29.79 in    
Wind  
Wind Speed 9 mph (WNW)    
Max Wind Speed 20 mph    
Max Gust Speed 31 mph    
Visibility 10 miles    
Events Rain    
T = Trace of Precipitation, MM = Missing Value Source: NWS Daily Summary

Daily Weather History Graph

Daily Weather History Graph

Search for Another Location

Airport or City:

Trip Planner

Search our weather history database for the weather conditions in past years. The results will help you decide how hot, cold, wet, or windy it might be!

Date:

Astronomy

Jul. 23, 2013 Rise Set
Actual Time 6:27 AM EDT 9:14 PM EDT
Civil Twilight 5:54 AM EDT 9:46 PM EDT
Nautical Twilight 5:12 AM EDT 10:28 PM EDT
Astronomical Twilight 4:24 AM EDT 11:16 PM EDT
Moon 9:37 PM EDT (7/23) 7:38 AM EDT (7/23)
Length of Visible Light 15h 52m
Length of Day
14h 46m
Full, 99% of the Moon is Illuminated
Jul 23
Full
Jul 29
Last Quarter
Aug 6
New
Aug 14
First Quarter
Aug 20
Full

Hourly Weather History & Observations

Time (EDT) Temp. Dew Point Humidity Pressure Visibility Wind Dir Wind Speed Gust Speed Precip Events Conditions
12:53 AM 75.0 °F 68.0 °F 79% 29.75 in 10.0 mi South 6.9 mph - N/A   Clear
1:53 AM 73.9 °F 68.0 °F 82% 29.74 in 10.0 mi South 8.1 mph - N/A   Clear
2:53 AM 73.9 °F 68.0 °F 82% 29.71 in 10.0 mi South 9.2 mph - N/A   Partly Cloudy
3:53 AM 75.0 °F 66.9 °F 76% 29.68 in 10.0 mi SW 9.2 mph - 0.01 in Rain Light Rain
4:53 AM 73.9 °F 69.1 °F 85% 29.66 in 10.0 mi SW 3.5 mph - 0.00 in   Scattered Clouds
5:53 AM 75.0 °F 69.1 °F 82% 29.70 in 10.0 mi SW 5.8 mph - 0.00 in   Mostly Cloudy
6:53 AM 73.0 °F 68.0 °F 84% 29.70 in 10.0 mi Calm Calm - N/A   Clear
7:53 AM 75.0 °F 68.0 °F 79% 29.71 in 10.0 mi Calm Calm - N/A   Clear
8:53 AM 78.1 °F 71.1 °F 79% 29.71 in 10.0 mi WSW 8.1 mph - N/A   Clear
9:53 AM 77.0 °F 69.1 °F 76% 29.73 in 10.0 mi West 6.9 mph - N/A   Overcast
10:53 AM 75.0 °F 64.9 °F 71% 29.76 in 10.0 mi NW 11.5 mph 17.3 mph N/A   Overcast
11:53 AM 77.0 °F 64.0 °F 64% 29.76 in 10.0 mi NNW 12.7 mph 20.7 mph N/A   Mostly Cloudy
12:53 PM 75.9 °F 61.0 °F 60% 29.78 in 10.0 mi NW 15.0 mph 21.9 mph N/A   Mostly Cloudy
1:53 PM 77.0 °F 60.1 °F 56% 29.79 in 10.0 mi NNW 15.0 mph 24.2 mph N/A   Clear
2:53 PM 75.9 °F 57.9 °F 54% 29.81 in 10.0 mi NW 17.3 mph 25.3 mph N/A   Partly Cloudy
3:53 PM 73.9 °F 55.0 °F 52% 29.83 in 10.0 mi NW 13.8 mph 31.1 mph N/A   Clear
4:53 PM 73.0 °F 53.1 °F 49% 29.84 in 10.0 mi NNW 10.4 mph 27.6 mph N/A   Clear
5:53 PM 73.0 °F 55.0 °F 53% 29.84 in 10.0 mi NW 15.0 mph 21.9 mph N/A   Clear
6:53 PM 70.0 °F 53.1 °F 55% 29.85 in 10.0 mi NW 12.7 mph 24.2 mph N/A   Clear
7:53 PM 70.0 °F 50.0 °F 49% 29.86 in 10.0 mi North 12.7 mph 18.4 mph N/A   Clear
8:53 PM 66.0 °F 48.9 °F 54% 29.88 in 10.0 mi Variable 6.9 mph - N/A   Clear
9:53 PM 64.0 °F 48.9 °F 58% 29.90 in 10.0 mi NNW 6.9 mph - N/A   Clear
10:53 PM 62.1 °F 48.0 °F 60% 29.94 in 10.0 mi Variable 5.8 mph - N/A   Clear
11:53 PM 61.0 °F 48.0 °F 62% 29.96 in 10.0 mi North 5.8 mph - N/A   Clear